,,Stat5,,Stat1,,Stat2,,Stat3,,Stat4,,Wind1,,Wind1,
time,status,PA1M_AVG,status,PR1M_SUM,status,RH1M_AVG,status,SR1M_AVG,status,TA1M_AVG,status,W1dAve1m,status,W1sAve1m,
2003-01-09, 00:00:00,VALID,920.089,VALID,0,VALID,99.8591,VALID,0.0169808,VALID,18.7136,VALID,107,VALID,1.30767,
2003-01-09, 00:01:00,VALID,920.078,VALID,0,VALID,99.8527,VALID,0.0509425,VALID,18.7032,VALID,102,VALID,1.08192,
2003-01-09, 00:02:00,VALID,920.072,VALID,0.2,VALID,99.8578,VALID,0.0339617,VALID,18.7198,VALID,81,VALID,0.773438,
2003-01-09, 00:03:00,VALID,920.062,VALID,0,VALID,99.8655,VALID,0.0509425,VALID,18.7168,VALID,106,VALID,1.13405,
2003-01-09, 00:04:00,VALID,920.06,VALID,0,VALID,99.8604,VALID,0.0339617,VALID,18.7161,VALID,123,VALID,1.20413,
2003-01-09, 00:05:00,VALID,920.059,VALID,0,VALID,99.8527,VALID,0,VALID,18.7129,VALID,105,VALID,1.14001,
2003-01-09, 00:06:00,VALID,920.049,VALID,0,VALID,99.8591,VALID,0.0169808,VALID,18.7263,VALID,130,VALID,1.41632,
2003-01-09, 00:07:00,VALID,920.039,VALID,0,VALID,99.8566,VALID,0.0509425,VALID,18.7166,VALID,109,VALID,1.47336,
2003-01-09, 00:08:00,VALID,920.027,VALID,0,VALID,99.8566,VALID,-0.0849042,VALID,18.7078,VALID,123,VALID,1.70974,
2003-01-09, 00:09:00,VALID,920.029,VALID,0.2,VALID,99.8566,VALID,-0.0679233,VALID,18.7083,VALID,143,VALID,0.882813,
2003-01-09, 00:10:00,VALID,920.032,VALID,0,VALID,99.8553,VALID,-0.0509425,VALID,18.6887,VALID,133,VALID,1.15246,
2003-01-09, 00:11:00,VALID,920.029,VALID,0,VALID,99.8706,VALID,-0.101885,VALID,18.6825,VALID,140,VALID,1.11338,
2003-01-09, 00:12:00,VALID,920.032,VALID,0,VALID,99.8616,VALID,-0.101885,VALID,18.6631,VALID,137,VALID,1.3318,
2003-01-09, 00:13:00,VALID,920.022,VALID,0,VALID,99.8718,VALID,-0.0679233,VALID,18.6402,VALID,146,VALID,1.57366,
2003-01-09, 00:14:00,VALID,920.021,VALID,0.2,VALID,99.8706,VALID,-0.0679233,VALID,18.6174,VALID,142,VALID,1.56211,
2003-01-09, 00:15:00,VALID,920.015,VALID,0,VALID,99.8667,VALID,-0.0509425,VALID,18.6174,VALID,148,VALID,1.47254,
2003-01-09, 00:16:00,VALID,920.02,VALID,0,VALID,99.8642,VALID,-0.0849042,VALID,18.6077,VALID,148,VALID,1.90993,
2003-01-09, 00:17:00,VALID,920.007,VALID,0,VALID,99.8807,VALID,-0.101885,VALID,18.5915,VALID,141,VALID,1.48438,
2003-01-09, 00:18:00,VALID,919.998,VALID,0,VALID,99.8731,VALID,-0.101885,VALID,18.5821,VALID,138,VALID,1.40871,
2003-01-09, 00:19:01,VALID,919.999,VALID,0,VALID,99.8795,VALID,-0.0339617,VALID,18.5823,VALID,155,VALID,1.22187,
2003-01-09, 00:20:01,VALID,920.002,VALID,0,VALID,99.8744,VALID,-0.0679233,VALID,18.5791,VALID,142,VALID,1.9357,
2003-01-09, 00:21:00,VALID,920.009,VALID,0.2,VALID,99.8718,VALID,-0.101885,VALID,18.5694,VALID,158,VALID,1.16085,
2003-01-09, 00:22:00,VALID,920.008,VALID,0,VALID,99.8782,VALID,-0.101885,VALID,18.5694,VALID,168,VALID,1.22545,
2003-01-09, 00:23:00,VALID,920.024,VALID,0,VALID,99.8718,VALID,0.0169808,VALID,18.5781,VALID,155,VALID,0.541602,
2003-01-09, 00:24:00,VALID,920.016,VALID,0,VALID,99.8782,VALID,0,VALID,18.5881,VALID,155,VALID,0.696429,
2003-01-09, 00:25:00,VALID,920.015,VALID,0,VALID,99.8769,VALID,0.0509425,VALID,18.5908,VALID,147,VALID,1.42716,
2003-01-09, 00:26:01,VALID,920.015,VALID,0,VALID,99.8807,VALID,0.0169808,VALID,18.5841,VALID,146,VALID,1.45765,
2003-01-09, 00:27:00,VALID,920.017,VALID,0,VALID,99.8756,VALID,0,VALID,18.5846,VALID,154,VALID,1.32879,
2003-01-09, 00:28:01,VALID,920.012,VALID,0,VALID,99.8693,VALID,0,VALID,18.5685,VALID,168,VALID,1.33214,
2003-01-09, 00:29:01,VALID,920,VALID,0,VALID,99.8756,VALID,0,VALID,18.5585,VALID,166,VALID,0.703125,
2003-01-09, 00:30:00,VALID,919.996,VALID,0,VALID,99.8744,VALID,0.0169808,VALID,18.5678,VALID,153,VALID,0.954733,
2003-01-09, 00:31:00,VALID,919.99,VALID,0,VALID,99.8769,VALID,0.0169808,VALID,18.5749,VALID,155,VALID,1.05246,
2003-01-09, 00:32:00,VALID,919.973,VALID,0,VALID,99.8795,VALID,0.0169808,VALID,18.5712,VALID,135,VALID,1.33281,
2003-01-09, 00:33:00,VALID,919.969,VALID,0.2,VALID,99.8693,VALID,0.0169808,VALID,18.5615,VALID,154,VALID,1.69308,
2003-01-09, 00:34:00,VALID,919.961,VALID,0,VALID,99.882,VALID,0.0169808,VALID,18.5548,VALID,139,VALID,1.34766,
2003-01-09, 00:35:01,VALID,919.945,VALID,0,VALID,99.8782,VALID,0.0339617,VALID,18.5548,VALID,149,VALID,1.31147,
2003-01-09, 00:36:00,VALID,919.929,VALID,0,VALID,99.882,VALID,0.0169808,VALID,18.5484,VALID,140,VALID,2.11674,
2003-01-09, 00:37:01,VALID,919.911,VALID,0,VALID,99.882,VALID,0,VALID,18.5387,VALID,148,VALID,2.43013,
2003-01-09, 00:38:01,VALID,919.888,VALID,0.2,VALID,99.8858,VALID,0.0339617,VALID,18.5297,VALID,142,VALID,1.9988,
2003-01-09, 00:39:00,VALID,919.886,VALID,0,VALID,99.8884,VALID,0,VALID,18.5265,VALID,146,VALID,1.55423,
2003-01-09, 00:40:00,VALID,919.876,VALID,0.2,VALID,99.8833,VALID,0.0169808,VALID,18.526,VALID,140,VALID,1.58504,
2003-01-09, 00:41:00,VALID,919.867,VALID,0,VALID,99.8845,VALID,0,VALID,18.5362,VALID,141,VALID,1.09277,
2003-01-09, 00:42:00,VALID,919.879,VALID,0,VALID,99.8845,VALID,0.0169808,VALID,18.5292,VALID,126,VALID,1.42768,
2003-01-09, 00:43:00,VALID,919.866,VALID,0,VALID,99.8884,VALID,0.0339617,VALID,18.532,VALID,139,VALID,1.40372,
2003-01-09, 00:44:00,VALID,919.839,VALID,0.2,VALID,99.8718,VALID,0,VALID,18.5391,VALID,131,VALID,1.41139,
2003-01-09, 00:45:00,VALID,919.817,VALID,0,VALID,99.8795,VALID,0.0169808,VALID,18.5456,VALID,147,VALID,1.25089,
2003-01-09, 00:46:01,VALID,919.81,VALID,0,VALID,99.8795,VALID,0,VALID,18.5456,VALID,139,VALID,2.04643,
2003-01-09, 00:47:01,VALID,919.79,VALID,0,VALID,99.882,VALID,0.0169808,VALID,18.5521,VALID,147,VALID,1.85917,
2003-01-09, 00:48:00,VALID,919.765,VALID,0,VALID,99.8845,VALID,0,VALID,18.5588,VALID,132,VALID,1.84536,
2003-01-09, 00:49:00,VALID,919.757,VALID,0.2,VALID,99.8845,VALID,0,VALID,18.5491,VALID,134,VALID,1.48929,
2003-01-09, 00:50:00,VALID,919.751,VALID,0,VALID,99.8756,VALID,0.0169808,VALID,18.5615,VALID,129,VALID,0.942187,
2003-01-09, 00:51:00,VALID,919.756,VALID,0,VALID,99.8807,VALID,0,VALID,18.5581,VALID,114,VALID,1.16205,
2003-01-09, 00:52:00,VALID,919.739,VALID,0,VALID,99.8833,VALID,0.0339617,VALID,18.5585,VALID,111,VALID,1.5108,
2003-01-09, 00:53:00,VALID,919.727,VALID,0,VALID,99.8782,VALID,0,VALID,18.5562,VALID,163,VALID,1.13363,
2003-01-09, 00:54:01,VALID,919.719,VALID,0,VALID,99.8782,VALID,-0.0509425,VALID,18.5595,VALID,115,VALID,1.06429,
2003-01-09, 00:55:01,VALID,919.701,VALID,0,VALID,99.8756,VALID,-0.0509425,VALID,18.5632,VALID,146,VALID,1.35737,
2003-01-09, 00:56:01,VALID,919.678,VALID,0.2,VALID,99.8756,VALID,-0.101885,VALID,18.553,VALID,147,VALID,1.20673,
2003-01-09, 00:57:00,VALID,919.658,VALID,0,VALID,99.8884,VALID,-0.0509425,VALID,18.556,VALID,132,VALID,1.57881,
2003-01-09, 00:58:00,VALID,919.63,VALID,0,VALID,99.8807,VALID,-0.0849042,VALID,18.5528,VALID,142,VALID,1.43259,
2003-01-09, 00:59:00,VALID,919.624,VALID,0,VALID,99.882,VALID,-0.0849042,VALID,18.5498,VALID,139,VALID,1.23184,
2003-01-09, 01:00:00,VALID,919.592,VALID,0,VALID,99.8845,VALID,-0.0679233,VALID,18.553,VALID,141,VALID,1.41317,
2003-01-09, 01:01:00,VALID,919.566,VALID,0,VALID,99.8909,VALID,-0.0679233,VALID,18.5398,VALID,142,VALID,1.55722,
2003-01-09, 01:02:01,VALID,919.543,VALID,0,VALID,99.8782,VALID,-0.0849042,VALID,18.5401,VALID,134,VALID,1.59992,
2003-01-09, 01:03:00,VALID,919.529,VALID,0,VALID,99.8782,VALID,-0.0849042,VALID,18.5468,VALID,135,VALID,1.09063,
2003-01-09, 01:04:01,VALID,919.512,VALID,0,VALID,99.8807,VALID,-0.0679233,VALID,18.5433,VALID,133,VALID,0.904018,
2003-01-09, 01:05:01,VALID,919.491,VALID,0,VALID,99.8807,VALID,-0.0339617,VALID,18.5498,VALID,141,VALID,1.15385,
2003-01-09, 01:06:00,VALID,919.48,VALID,0,VALID,99.8769,VALID,-0.0849042,VALID,18.5599,VALID,142,VALID,0.971507,
2003-01-09, 01:07:00,VALID,919.441,VALID,0,VALID,99.8896,VALID,-0.0339617,VALID,18.5502,VALID,143,VALID,1.40781,
2003-01-09, 01:08:00,VALID,919.415,VALID,0,VALID,99.8871,VALID,-0.0339617,VALID,18.5406,VALID,151,VALID,1.07988,
2003-01-09, 01:09:00,VALID,919.411,VALID,0,VALID,99.8845,VALID,-0.0849042,VALID,18.5401,VALID,129,VALID,0.87433,
2003-01-09, 01:10:00,VALID,919.395,VALID,0,VALID,99.8845,VALID,-0.0849042,VALID,18.547,VALID,132,VALID,0.971737,
2003-01-09, 01:11:01,VALID,919.372,VALID,0,VALID,99.8769,VALID,-0.0679233,VALID,18.5339,VALID,106,VALID,0.955592,
2003-01-09, 01:12:00,VALID,919.347,VALID,0,VALID,99.8807,VALID,-0.101885,VALID,18.5373,VALID,132,VALID,0.96317,
2003-01-09, 01:13:01,VALID,919.344,VALID,0,VALID,99.8756,VALID,-0.0679233,VALID,18.5408,VALID,143,VALID,0.949107,
2003-01-09, 01:14:01,VALID,919.325,VALID,0,VALID,99.8706,VALID,-0.0509425,VALID,18.5306,VALID,119,VALID,0.884215,
2003-01-09, 01:15:00,VALID,919.302,VALID,0,VALID,99.8731,VALID,-0.0679233,VALID,18.5341,VALID,127,VALID,0.855239,
2003-01-09, 01:16:00,VALID,919.283,VALID,0,VALID,99.8744,VALID,-0.0509425,VALID,18.5276,VALID,111,VALID,0.817634,
2003-01-09, 01:17:00,VALID,919.258,VALID,0,VALID,99.8884,VALID,-0.0339617,VALID,18.5244,VALID,126,VALID,1.44414,
2003-01-09, 01:18:00,VALID,919.244,VALID,0,VALID,99.8782,VALID,-0.0679233,VALID,18.5179,VALID,130,VALID,1.26339,
2003-01-09, 01:19:00,VALID,919.234,VALID,0,VALID,99.8833,VALID,-0.0509425,VALID,18.5177,VALID,141,VALID,1.23943,
2003-01-09, 01:20:00,VALID,919.213,VALID,0,VALID,99.8769,VALID,-0.0679233,VALID,18.5274,VALID,95,VALID,0.614926,
2003-01-09, 01:21:00,VALID,919.197,VALID,0,VALID,99.8845,VALID,-0.0509425,VALID,18.5205,VALID,141,VALID,0.857589,
2003-01-09, 01:22:01,VALID,919.185,VALID,0,VALID,99.8693,VALID,-0.0339617,VALID,18.5339,VALID,123,VALID,0.9125,
2003-01-09, 01:23:01,VALID,919.18,VALID,0,VALID,99.8795,VALID,-0.0339617,VALID,18.5304,VALID,104,VALID,0.565304,
2003-01-09, 01:24:00,VALID,919.168,VALID,0,VALID,99.882,VALID,-0.0509425,VALID,18.5309,VALID,108,VALID,1.08869,
2003-01-09, 01:25:00,VALID,919.145,VALID,0,VALID,99.8769,VALID,-0.0509425,VALID,18.5336,VALID,120,VALID,1.04174,
2003-01-09, 01:26:00,VALID,919.13,VALID,0,VALID,99.8756,VALID,-0.0679233,VALID,18.5438,VALID,119,VALID,1.11543,
2003-01-09, 01:27:00,VALID,919.102,VALID,0,VALID,99.8756,VALID,-0.0509425,VALID,18.5401,VALID,110,VALID,0.9875,
2003-01-09, 01:28:01,VALID,919.076,VALID,0,VALID,99.8744,VALID,-0.0509425,VALID,18.5602,VALID,110,VALID,1.59467,
2003-01-09, 01:29:01,VALID,919.066,VALID,0,VALID,99.8756,VALID,-0.0849042,VALID,18.5535,VALID,104,VALID,1.0514,
2003-01-09, 01:30:01,VALID,919.041,VALID,0,VALID,99.8782,VALID,-0.0509425,VALID,18.547,VALID,121,VALID,1.54062,
2003-01-09, 01:31:01,VALID,919.018,VALID,0,VALID,99.8795,VALID,-0.0849042,VALID,18.5468,VALID,107,VALID,1.07991,
2003-01-09, 01:32:01,VALID,918.985,VALID,0,VALID,99.8756,VALID,-0.0679233,VALID,18.547,VALID,124,VALID,0.947115,
2003-01-09, 01:33:00,VALID,918.954,VALID,0,VALID,99.882,VALID,-0.101885,VALID,18.5398,VALID,133,VALID,1.98231,
2003-01-09, 01:34:00,VALID,918.935,VALID,0,VALID,99.882,VALID,-0.0679233,VALID,18.5433,VALID,122,VALID,0.765848,
2003-01-09, 01:35:00,VALID,918.924,VALID,0,VALID,99.882,VALID,-0.0849042,VALID,18.5567,VALID,123,VALID,1.45684,
2003-01-09, 01:36:00,VALID,918.924,VALID,0,VALID,99.8744,VALID,-0.0849042,VALID,18.5673,VALID,108,VALID,1.31183,
2003-01-09, 01:37:00,VALID,918.91,VALID,0,VALID,99.8756,VALID,-0.0509425,VALID,18.55,VALID,136,VALID,1.12615,
2003-01-09, 01:38:01,VALID,918.913,VALID,0,VALID,99.8807,VALID,0,VALID,18.5602,VALID,119,VALID,0.674137,
2003-01-09, 01:39:00,VALID,918.914,VALID,0,VALID,99.882,VALID,-0.101885,VALID,18.5597,VALID,135,VALID,0.955804,
2003-01-09, 01:40:01,VALID,918.905,VALID,0,VALID,99.8693,VALID,-0.0509425,VALID,18.55,VALID,109,VALID,0.627455,
2003-01-09, 01:41:01,VALID,918.895,VALID,0,VALID,99.8744,VALID,-0.0849042,VALID,18.5535,VALID,124,VALID,1.63401,
2003-01-09, 01:42:00,VALID,918.9,VALID,0,VALID,99.8744,VALID,-0.101885,VALID,18.5602,VALID,137,VALID,1.38373,
2003-01-09, 01:43:01,VALID,918.891,VALID,0,VALID,99.8833,VALID,-0.101885,VALID,18.5634,VALID,123,VALID,1.06362,
2003-01-09, 01:44:01,VALID,918.882,VALID,0,VALID,99.882,VALID,-0.0509425,VALID,18.5629,VALID,138,VALID,1.21035,
2003-01-09, 01:45:01,VALID,918.866,VALID,0,VALID,99.8833,VALID,-0.0849042,VALID,18.5763,VALID,129,VALID,1.31094,
2003-01-09, 01:46:01,VALID,918.869,VALID,0,VALID,99.8731,VALID,-0.0679233,VALID,18.5828,VALID,109,VALID,1.37661,
2003-01-09, 01:47:01,VALID,918.861,VALID,0,VALID,99.8807,VALID,-0.0679233,VALID,18.5862,VALID,109,VALID,1.12993,
2003-01-09, 01:48:01,VALID,918.86,VALID,0,VALID,99.8807,VALID,-0.0849042,VALID,18.586,VALID,126,VALID,1.25067,
2003-01-09, 01:49:01,VALID,918.851,VALID,0,VALID,99.8667,VALID,-0.0679233,VALID,18.5855,VALID,126,VALID,1.36161,
2003-01-09, 01:50:01,VALID,918.84,VALID,0,VALID,99.8769,VALID,-0.0849042,VALID,18.5955,VALID,114,VALID,1.44071,
2003-01-09, 01:51:01,VALID,918.827,VALID,0,VALID,99.8744,VALID,-0.0679233,VALID,18.5855,VALID,122,VALID,1.45106,
2003-01-09, 01:52:01,VALID,918.806,VALID,0,VALID,99.8769,VALID,-0.0679233,VALID,18.6056,VALID,127,VALID,1.04487,
2003-01-09, 01:53:01,VALID,918.799,VALID,0,VALID,99.8807,VALID,0.0169808,VALID,18.5846,VALID,131,VALID,1.53613,
2003-01-09, 01:54:01,VALID,918.771,VALID,0,VALID,99.8858,VALID,0,VALID,18.5844,VALID,117,VALID,1.06496,
2003-01-09, 01:55:01,VALID,918.768,VALID,0,VALID,99.8833,VALID,0,VALID,18.5816,VALID,108,VALID,1.26287,
2003-01-09, 01:56:01,VALID,918.741,VALID,0,VALID,99.882,VALID,0,VALID,18.5678,VALID,122,VALID,1.45127,
2003-01-09, 01:57:01,VALID,918.726,VALID,0,VALID,99.882,VALID,0.0339617,VALID,18.5719,VALID,120,VALID,1.12455,
2003-01-09, 01:58:01,VALID,918.71,VALID,0,VALID,99.8795,VALID,0.0169808,VALID,18.5779,VALID,112,VALID,1.13527,
2003-01-09, 01:59:01,VALID,918.708,VALID,0,VALID,99.8833,VALID,0,VALID,18.5722,VALID,135,VALID,1.22917,
2003-01-09, 02:00:01,VALID,918.69,VALID,0,VALID,99.8782,VALID,0.0169808,VALID,18.5643,VALID,120,VALID,1.54343,
2003-01-09, 02:01:01,VALID,918.673,VALID,0,VALID,99.8718,VALID,0.0339617,VALID,18.5754,VALID,121,VALID,1.42612,
2003-01-09, 02:02:01,VALID,918.672,VALID,0,VALID,99.8756,VALID,0,VALID,18.5682,VALID,112,VALID,0.736719,
2003-01-09, 02:03:01,VALID,918.672,VALID,0,VALID,99.8845,VALID,0,VALID,18.5816,VALID,138,VALID,1.62969,
2003-01-09, 02:04:01,VALID,918.662,VALID,0,VALID,99.8845,VALID,0,VALID,18.5682,VALID,120,VALID,1.40119,
2003-01-09, 02:05:01,VALID,918.642,VALID,0,VALID,99.8744,VALID,0,VALID,18.5648,VALID,134,VALID,0.790707,
2003-01-09, 02:06:01,VALID,918.63,VALID,0,VALID,99.882,VALID,0.0339617,VALID,18.5719,VALID,124,VALID,0.913616,
2003-01-09, 02:07:01,VALID,918.621,VALID,0,VALID,99.8731,VALID,0,VALID,18.5648,VALID,156,VALID,0.700893,
2003-01-09, 02:08:00,VALID,918.602,VALID,0,VALID,99.8884,VALID,-0.0849042,VALID,18.5599,VALID,107,VALID,0.545473,
2003-01-09, 02:09:00,VALID,918.59,VALID,0,VALID,99.8807,VALID,-0.0679233,VALID,18.5565,VALID,126,VALID,0.66659,
2003-01-09, 02:10:00,VALID,918.572,VALID,0,VALID,99.8871,VALID,-0.101885,VALID,18.5532,VALID,148,VALID,1.36585,
2003-01-09, 02:11:00,VALID,918.563,VALID,0,VALID,99.8858,VALID,-0.101885,VALID,18.5537,VALID,137,VALID,1.15137,
2003-01-09, 02:12:00,VALID,918.554,VALID,0,VALID,99.8795,VALID,-0.0849042,VALID,18.5535,VALID,144,VALID,0.825446,
2003-01-09, 02:13:00,VALID,918.551,VALID,0,VALID,99.8858,VALID,-0.101885,VALID,18.5505,VALID,152,VALID,1.19577,
2003-01-09, 02:14:00,VALID,918.536,VALID,0,VALID,99.8731,VALID,-0.0849042,VALID,18.5539,VALID,166,VALID,1.081,
2003-01-09, 02:15:00,VALID,918.54,VALID,0,VALID,99.8871,VALID,-0.101885,VALID,18.5438,VALID,164,VALID,1.02924,
2003-01-09, 02:16:00,VALID,918.531,VALID,0,VALID,99.8845,VALID,-0.101885,VALID,18.5574,VALID,143,VALID,1.37768,
2003-01-09, 02:17:00,VALID,918.518,VALID,0,VALID,99.8871,VALID,-0.101885,VALID,18.541,VALID,157,VALID,0.985577,
2003-01-09, 02:18:00,VALID,918.525,VALID,0,VALID,99.8795,VALID,-0.0849042,VALID,18.5373,VALID,164,VALID,1.16176,
2003-01-09, 02:19:00,VALID,918.523,VALID,0,VALID,99.8833,VALID,-0.101885,VALID,18.5438,VALID,154,VALID,1.16607,
2003-01-09, 02:20:00,VALID,918.523,VALID,0,VALID,99.8795,VALID,-0.101885,VALID,18.5309,VALID,157,VALID,1.11953,
2003-01-09, 02:21:00,VALID,918.513,VALID,0,VALID,99.8833,VALID,-0.101885,VALID,18.5413,VALID,159,VALID,0.980903,
2003-01-09, 02:22:00,VALID,918.504,VALID,0,VALID,99.8871,VALID,-0.0849042,VALID,18.5343,VALID,152,VALID,0.77045,
2003-01-09, 02:23:00,VALID,918.516,VALID,0.2,VALID,99.8795,VALID,-0.0169808,VALID,18.5396,VALID,134,VALID,1.06826,
2003-01-09, 02:24:00,VALID,918.513,VALID,0,VALID,99.8744,VALID,0.0169808,VALID,18.5327,VALID,150,VALID,0.906696,
2003-01-09, 02:25:00,VALID,918.518,VALID,0,VALID,99.8744,VALID,0,VALID,18.5191,VALID,140,VALID,1.3529,
2003-01-09, 02:26:00,VALID,918.512,VALID,0,VALID,99.8706,VALID,0.0339617,VALID,18.5332,VALID,150,VALID,1.02103,
2003-01-09, 02:27:00,VALID,918.508,VALID,0,VALID,99.8756,VALID,0,VALID,18.5426,VALID,135,VALID,0.8233,
2003-01-09, 02:28:00,VALID,918.51,VALID,0,VALID,99.8706,VALID,0,VALID,18.5391,VALID,138,VALID,0.999554,
2003-01-09, 02:29:00,VALID,918.504,VALID,0,VALID,99.8782,VALID,0.0169808,VALID,18.526,VALID,142,VALID,1.02422,
2003-01-09, 02:30:00,VALID,918.48,VALID,0,VALID,99.8756,VALID,0.0169808,VALID,18.5262,VALID,145,VALID,1.56853,
2003-01-09, 02:31:00,VALID,918.471,VALID,0,VALID,99.8706,VALID,0.0169808,VALID,18.5396,VALID,141,VALID,1.22518,
2003-01-09, 02:32:00,VALID,918.462,VALID,0,VALID,99.8706,VALID,0.0169808,VALID,18.5225,VALID,148,VALID,1.07566,
2003-01-09, 02:33:00,VALID,918.427,VALID,0,VALID,99.8667,VALID,0.0339617,VALID,18.5424,VALID,133,VALID,0.989062,
2003-01-09, 02:34:00,VALID,918.437,VALID,0,VALID,99.8718,VALID,0.0169808,VALID,18.5359,VALID,155,VALID,0.772768,
2003-01-09, 02:35:00,VALID,918.415,VALID,0,VALID,99.8744,VALID,0.0339617,VALID,18.5364,VALID,135,VALID,0.989583,
2003-01-09, 02:36:00,VALID,918.412,VALID,0,VALID,99.8718,VALID,0,VALID,18.5265,VALID,133,VALID,0.831801,
2003-01-09, 02:37:00,VALID,918.401,VALID,0,VALID,99.8693,VALID,0,VALID,18.5198,VALID,120,VALID,0.833929,
2003-01-09, 02:38:00,VALID,918.386,VALID,0,VALID,99.8744,VALID,0,VALID,18.5165,VALID,115,VALID,0.907812,
2003-01-09, 02:39:00,VALID,918.375,VALID,0,VALID,99.8795,VALID,0.0169808,VALID,18.5133,VALID,113,VALID,0.882589,
2003-01-09, 02:40:00,VALID,918.377,VALID,0,VALID,99.8807,VALID,0,VALID,18.5039,VALID,112,VALID,0.820083,
2003-01-09, 02:41:00,VALID,918.365,VALID,0,VALID,99.8922,VALID,0,VALID,18.5108,VALID,123,VALID,1.01007,
2003-01-09, 02:42:00,VALID,918.355,VALID,0,VALID,99.8884,VALID,0,VALID,18.5006,VALID,115,VALID,0.813393,
2003-01-09, 02:43:00,VALID,918.34,VALID,0,VALID,99.8833,VALID,0,VALID,18.5071,VALID,105,VALID,0.730357,
2003-01-09, 02:44:00,VALID,918.334,VALID,0,VALID,99.8756,VALID,0.0169808,VALID,18.5101,VALID,81,VALID,0.4377,
2003-01-09, 02:45:00,VALID,918.329,VALID,0,VALID,99.8807,VALID,0.0169808,VALID,18.5133,VALID,100,VALID,0.988511,
2003-01-09, 02:46:00,VALID,918.315,VALID,0,VALID,99.8756,VALID,0,VALID,18.5105,VALID,100,VALID,0.806027,
2003-01-09, 02:47:00,VALID,918.31,VALID,0,VALID,99.8858,VALID,0,VALID,18.5138,VALID,117,VALID,1.01641,
2003-01-09, 02:48:00,VALID,918.297,VALID,0,VALID,99.8795,VALID,0.0169808,VALID,18.4944,VALID,107,VALID,0.766295,
2003-01-09, 02:49:00,VALID,918.293,VALID,0,VALID,99.8807,VALID,0,VALID,18.5009,VALID,118,VALID,0.901654,
2003-01-09, 02:50:00,VALID,918.271,VALID,0,VALID,99.8807,VALID,0,VALID,18.4939,VALID,133,VALID,0.912212,
2003-01-09, 02:51:00,VALID,918.265,VALID,0,VALID,99.8769,VALID,-0.0169808,VALID,18.4942,VALID,136,VALID,0.727455,
2003-01-09, 02:52:00,VALID,918.262,VALID,0,VALID,99.8871,VALID,0.0169808,VALID,18.4942,VALID,134,VALID,1.07143,
2003-01-09, 02:53:00,VALID,918.258,VALID,0,VALID,99.8922,VALID,0.0169808,VALID,18.5041,VALID,149,VALID,0.701522,
2003-01-09, 02:54:00,VALID,918.25,VALID,0,VALID,99.8884,VALID,0,VALID,18.5002,VALID,140,VALID,1.02022,
2003-01-09, 02:55:00,VALID,918.24,VALID,0,VALID,99.8884,VALID,0.0169808,VALID,18.5039,VALID,122,VALID,0.620982,
2003-01-09, 02:56:00,VALID,918.233,VALID,0,VALID,99.8845,VALID,0,VALID,18.4969,VALID,116,VALID,0.717578,
2003-01-09, 02:57:00,VALID,918.238,VALID,0,VALID,99.8922,VALID,0,VALID,18.4868,VALID,136,VALID,0.902455,
2003-01-09, 02:58:00,VALID,918.225,VALID,0,VALID,99.8871,VALID,0,VALID,18.5036,VALID,131,VALID,0.865579,
2003-01-09, 02:59:00,VALID,918.231,VALID,0,VALID,99.8833,VALID,0,VALID,18.4937,VALID,126,VALID,0.694285,
2003-01-09, 03:00:00,VALID,918.223,VALID,0,VALID,99.882,VALID,0,VALID,18.5004,VALID,124,VALID,0.546652,
2003-01-09, 03:01:00,VALID,918.216,VALID,0,VALID,99.8909,VALID,0,VALID,18.4972,VALID,124,VALID,0.640625,
2003-01-09, 03:02:00,VALID,918.232,VALID,0,VALID,99.8871,VALID,0,VALID,18.4972,VALID,122,VALID,0.731971,
2003-01-09, 03:03:00,VALID,918.228,VALID,0,VALID,99.8845,VALID,0,VALID,18.4969,VALID,110,VALID,0.475184,
2003-01-09, 03:04:00,VALID,918.216,VALID,0,VALID,99.8807,VALID,0,VALID,18.5002,VALID,117,VALID,0.690625,
2003-01-09, 03:05:00,VALID,918.201,VALID,0,VALID,99.8795,VALID,0,VALID,18.5032,VALID,122,VALID,0.519727,
2003-01-09, 03:06:00,VALID,918.2,VALID,0,VALID,99.8845,VALID,0.0339617,VALID,18.5105,VALID,131,VALID,0.569866,
2003-01-09, 03:07:00,VALID,918.19,VALID,0,VALID,99.882,VALID,0,VALID,18.4967,VALID,131,VALID,0.624311,
2003-01-09, 03:08:00,VALID,918.188,VALID,0,VALID,99.8731,VALID,0,VALID,18.4974,VALID,127,VALID,0.724507,
2003-01-09, 03:09:00,VALID,918.182,VALID,0,VALID,99.8782,VALID,0,VALID,18.5039,VALID,114,VALID,0.766964,
2003-01-09, 03:10:00,VALID,918.186,VALID,0,VALID,99.8769,VALID,0.0169808,VALID,18.5064,VALID,120,VALID,0.818527,
2003-01-09, 03:11:00,VALID,918.178,VALID,0,VALID,99.8718,VALID,0,VALID,18.5105,VALID,119,VALID,0.594151,
2003-01-09, 03:12:00,VALID,918.191,VALID,0,VALID,99.8718,VALID,0,VALID,18.4999,VALID,118,VALID,0.732537,
2003-01-09, 03:13:00,VALID,918.19,VALID,0,VALID,99.8731,VALID,0.0169808,VALID,18.5036,VALID,131,VALID,0.360491,
2003-01-09, 03:14:00,VALID,918.201,VALID,0,VALID,99.8744,VALID,0,VALID,18.5292,VALID,140,VALID,0.403125,
2003-01-09, 03:15:00,VALID,918.207,VALID,0,VALID,99.8769,VALID,0,VALID,18.5267,VALID,122,VALID,0.560714,
2003-01-09, 03:16:00,VALID,918.207,VALID,0,VALID,99.8718,VALID,0.0169808,VALID,18.5262,VALID,127,VALID,0.631664,
2003-01-09, 03:17:00,VALID,918.204,VALID,0,VALID,99.8744,VALID,0.0169808,VALID,18.5295,VALID,142,VALID,0.138158,
2003-01-09, 03:18:00,VALID,918.21,VALID,0,VALID,99.8629,VALID,0,VALID,18.5461,VALID,141,VALID,0.197321,
2003-01-09, 03:19:00,VALID,918.209,VALID,0,VALID,99.8756,VALID,0,VALID,18.5456,VALID,141,VALID,0.332366,
2003-01-09, 03:20:00,VALID,918.196,VALID,0,VALID,99.8693,VALID,0.0169808,VALID,18.5387,VALID,118,VALID,0.360176,
2003-01-09, 03:21:00,VALID,918.198,VALID,0,VALID,99.8769,VALID,0.0169808,VALID,18.5223,VALID,107,VALID,0.308824,
2003-01-09, 03:22:00,VALID,918.193,VALID,0,VALID,99.8706,VALID,0.0169808,VALID,18.5223,VALID,97,VALID,0.54442,
2003-01-09, 03:23:00,VALID,918.191,VALID,0,VALID,99.8693,VALID,0,VALID,18.5225,VALID,71,VALID,0.606641,
2003-01-09, 03:24:00,VALID,918.197,VALID,0,VALID,99.882,VALID,0.0169808,VALID,18.5458,VALID,78,VALID,0.795759,
2003-01-09, 03:25:00,VALID,918.173,VALID,0,VALID,99.8833,VALID,0.0339617,VALID,18.5329,VALID,67,VALID,0.809743,
2003-01-09, 03:26:00,VALID,918.171,VALID,0,VALID,99.8744,VALID,0,VALID,18.526,VALID,65,VALID,0.872944,
2003-01-09, 03:27:00,VALID,918.161,VALID,0,VALID,99.8795,VALID,0,VALID,18.5195,VALID,66,VALID,0.860045,
2003-01-09, 03:28:00,VALID,918.162,VALID,0,VALID,99.8795,VALID,0,VALID,18.517,VALID,62,VALID,0.81942,
2003-01-09, 03:29:00,VALID,918.145,VALID,0,VALID,99.8833,VALID,0,VALID,18.4999,VALID,64,VALID,0.752204,
2003-01-09, 03:30:00,VALID,918.131,VALID,0,VALID,99.8795,VALID,0.0169808,VALID,18.4805,VALID,65,VALID,0.85386,
2003-01-09, 03:31:00,VALID,918.113,VALID,0,VALID,99.8845,VALID,0,VALID,18.4872,VALID,61,VALID,0.754911,
2003-01-09, 03:32:00,VALID,918.107,VALID,0,VALID,99.8833,VALID,0.0169808,VALID,18.4838,VALID,56,VALID,0.523438,
2003-01-09, 03:33:00,VALID,918.095,VALID,0,VALID,99.8833,VALID,0,VALID,18.4909,VALID,43,VALID,0.377902,